Wind_Speed
61 61 63 63 66 69 75 83 85 86 89 88 89 88 86 83 82 82 80 77 75 73 74 72 68 63 59 59 54 54 54 54
56 58 66 69 72 73 76 78 80 81 87 95 98 92 93 90 87 85 88 86 85 85 84 81 77 72 69 66 66 63 61 60
47 50 52 56 61 66 70 76 81 85 89 86 89 99 104 102 98 99 94 91 88 88 89 85 84 81 78 75 73 71 71 67
40 42 46 52 57 61 66 71 77 80 83 85 87 89 91 93 94 96 96 97 94 92 91 92 91 90 87 84 80 78 76 76
35 36 40 45 50 56 61 65 68 70 72 76 78 81 84 86 88 90 92 93 97 96 93 91 93 93 93 92 88 85 82 83
50 40 40 42 43 46 48 53 55 58 63 67 69 73 75 79 83 86 88 89 91 92 93 95 96 92 92 97 97 96 94 92
63 56 49 41 41 43 46 48 49 52 52 56 59 62 63 66 70 74 77 80 86 88 91 94 95 95 98 98 97 101 100 98
64 68 61 49 44 42 44 45 47 46 43 43 45 50 53 56 58 61 63 67 70 74 79 84 92 96 95 96 99 103 102 106
66 70 73 66 54 46 44 46 47 47 49 48 43 41 44 47 49 53 56 56 61 67 72 78 83 86 94 101 103 98 102 109
67 70 74 71 64 53 49 47 48 47 47 47 48 45 42 43 47 48 49 51 51 52 56 62 69 76 84 90 94 99 103 102
66 68 74 74 69 61 53 50 49 48 47 47 46 48 47 48 49 48 47 48 48 52 51 53 55 60 67 74 81 89 94 98
67 69 74 76 71 69 60 53 50 48 49 49 45 46 47 48 48 47 47 46 49 52 55 54 57 59 61 62 66 75 81 88
71 71 75 77 73 73 66 57 54 50 48 50 52 49 46 47 47 49 48 53 49 52 58 61 63 64 63 64 66 67 70 74
75 74 76 75 76 76 73 63 55 54 52 52 53 51 50 49 50 49 51 52 56 55 52 54 66 62 67 69 68 68 73 74
75 76 78 79 78 82 77 71 60 56 53 53 55 56 57 56 56 56 52 50 49 56 56 60 58 70 72 71 73 72 73 77
76 79 81 83 79 84 81 78 67 60 57 58 57 56 57 58 59 61 60 59 58 57 53 59 55 64 70 67 72 74 80 80
79 83 83 84 83 84 87 86 74 66 64 62 62 61 61 60 60 61 61 63 64 63 64 59 56 58 67 78 81 72 76 86
81 85 88 88 88 86 87 90 76 70 66 65 65 63 63 64 65 66 67 69 70 70 71 68 63 62 64 67 71 76 80 89
90 91 93 93 93 92 96 92 80 72 71 71 70 68 68 68 69 71 71 72 73 73 73 74 73 69 71 72 79 79 78 84
Wind_Direction
272 275 274 275 277 277 277 272 271 270 269 270 270 270 270 269 268 267 265 265 265 265 263 264 264 263 260 254 253 252 252 251
272 272 268 268 270 271 273 271 271 272 273 271 270 269 268 266 268 268 268 267 265 264 264 262 261 260 261 259 255 250 251 254
289 285 284 279 275 275 274 270 268 267 265 269 271 269 268 268 268 267 267 266 263 262 263 261 261 259 257 256 255 255 250 249
297 294 291 285 282 279 277 277 276 277 276 276 273 270 268 266 265 265 267 264 263 262 258 257 259 259 257 254 254 252 252 251
323 313 305 294 287 284 281 280 281 281 281 279 277 274 273 272 270 267 266 265 264 261 259 257 255 253 255 256 251 250 249 249
354 337 323 313 303 299 295 292 291 292 291 285 279 275 272 270 267 266 267 267 266 264 263 258 256 255 252 250 251 251 249 248
356 352 345 330 317 309 302 300 297 297 297 291 287 283 279 275 272 269 266 264 263 263 262 261 259 257 255 251 250 248 247 247
352 357 353 343 331 321 316 310 309 308 311 304 295 290 287 283 277 274 272 269 267 264 261 259 260 259 258 256 252 249 247 246
350 351 354 350 339 326 322 322 317 320 321 318 308 301 296 291 285 279 275 274 272 269 265 261 257 256 256 257 256 253 249 245
348 348 349 350 347 334 326 324 322 322 322 321 319 312 304 298 290 286 285 282 281 279 275 269 263 259 257 257 257 256 255 250
345 345 346 347 347 341 329 325 324 320 320 319 318 317 311 308 305 300 292 286 283 280 276 275 272 267 262 258 256 256 256 254
342 342 343 346 343 343 335 326 324 320 316 315 313 311 307 302 297 292 291 288 287 286 283 279 275 270 267 265 262 258 255 253
340 340 342 342 342 341 339 328 322 320 316 313 312 312 310 306 295 291 279 278 281 276 276 278 279 279 276 273 270 269 264 259
337 339 339 339 340 340 337 330 321 317 315 315 314 311 309 305 301 297 285 281 268 269 271 274 268 269 273 275 274 271 271 269
334 335 336 337 337 338 335 332 323 318 314 314 312 311 310 308 305 303 299 286 277 277 273 270 267 263 266 270 270 270 268 270
332 333 333 334 332 336 335 331 325 320 316 315 313 310 307 305 302 301 299 297 295 292 287 266 269 259 262 264 259 266 265 265
330 330 331 331 332 332 333 332 325 321 318 317 314 310 308 309 307 305 302 302 301 299 298 295 288 278 263 259 260 262 263 262
327 329 330 329 329 330 328 330 324 321 318 317 313 310 309 309 308 306 306 305 303 302 301 298 292 287 276 272 270 269 266 262
324 325 327 328 328 328 328 326 323 321 321 318 314 312 311 310 309 308 306 305 304 302 302 302 299 291 281 272 266 269 267 265
Height
10751 10746 10743 10738 10735 10733 10733 10730 10727 10727 10728 10727 10727 10727 10728 10731 10733 10736 10739 10741 10744 10746 10749 10752 10755 10757 10760 10760 10760 10762 10761 10762
10739 10734 10732 10727 10722 10718 10715 10713 10708 10704 10702 10703 10704 10705 10706 10709 10711 10712 10716 10720 10724 10726 10728 10733 10737 10741 10744 10745 10745 10747 10749 10751
10728 10722 10718 10714 10707 10702 10697 10694 10690 10685 10682 10681 10679 10681 10683 10685 10687 10688 10691 10695 10700 10702 10706 10710 10714 10721 10725 10728 10730 10730 10733 10735
10719 10714 10708 10701 10695 10688 10681 10676 10671 10666 10663 10660 10659 10659 10660 10660 10660 10660 10662 10666 10671 10675 10681 10686 10689 10695 10701 10707 10710 10713 10715 10717
10709 10702 10696 10689 10682 10675 10668 10661 10656 10650 10645 10639 10636 10635 10633 10631 10632 10633 10636 10637 10640 10646 10650 10655 10662 10668 10672 10679 10686 10691 10695 10697
10702 10693 10686 10678 10670 10663 10655 10648 10641 10633 10626 10618 10613 10610 10609 10608 10608 10608 10610 10610 10611 10615 10618 10623 10630 10637 10642 10649 10654 10660 10669 10674
10695 10686 10676 10667 10661 10654 10647 10639 10630 10622 10612 10602 10593 10588 10586 10585 10584 10584 10585 10586 10586 10586 10589 10591 10595 10601 10608 10616 10622 10628 10635 10643
10686 10677 10667 10657 10649 10642 10634 10627 10619 10609 10600 10590 10582 10575 10571 10567 10565 10563 10562 10562 10562 10562 10562 10565 10569 10572 10578 10584 10591 10598 10604 10612
10677 10667 10658 10648 10639 10631 10622 10613 10604 10595 10585 10577 10571 10566 10560 10555 10551 10547 10546 10544 10541 10539 10538 10540 10542 10544 10548 10552 10555 10561 10569 10577
10669 10659 10649 10640 10630 10619 10611 10602 10593 10584 10577 10568 10560 10553 10549 10545 10541 10536 10532 10529 10527 10524 10521 10518 10517 10519 10522 10525 10526 10530 10536 10543
10662 10652 10641 10630 10620 10610 10600 10591 10581 10572 10566 10559 10551 10543 10536 10531 10527 10523 10519 10514 10510 10506 10506 10502 10500 10497 10496 10498 10500 10502 10506 10510
10655 10644 10633 10621 10610 10600 10589 10579 10570 10561 10554 10548 10542 10535 10528 10522 10517 10512 10506 10500 10496 10491 10487 10485 10480 10478 10476 10476 10475 10475 10476 10476
10644 10634 10624 10613 10602 10591 10580 10569 10560 10552 10544 10535 10528 10522 10516 10510 10504 10499 10493 10487 10482 10478 10471 10467 10463 10460 10458 10456 10454 10452 10451 10452
10630 10620 10610 10600 10589 10579 10569 10558 10549 10541 10532 10523 10515 10507 10501 10495 10489 10485 10481 10474 10466 10461 10456 10452 10445 10443 10437 10435 10433 10430 10427 10426
10617 10608 10598 10588 10577 10567 10557 10547 10537 10529 10520 10512 10502 10492 10483 10477 10471 10465 10459 10454 10449 10443 10437 10431 10424 10420 10417 10413 10410 10407 10404 10400
10609 10598 10588 10577 10565 10554 10542 10532 10521 10512 10503 10494 10486 10477 10469 10461 10453 10446 10439 10432 10427 10420 10415 10409 10403 10399 10393 10393 10387 10383 10380 10376
10597 10586 10574 10563 10552 10539 10527 10516 10504 10494 10484 10475 10466 10458 10450 10442 10435 10427 10420 10411 10403 10397 10392 10387 10380 10373 10370 10366 10363 10359 10353 10350
10583 10571 10561 10549 10539 10529 10516 10504 10491 10480 10470 10459 10450 10440 10431 10422 10413 10404 10395 10387 10379 10373 10364 10358 10354 10347 10341 10336 10332 10331 10325 10320
10568 10557 10545 10534 10522 10510 10498 10486 10474 10463 10451 10440 10429 10420 10411 10400 10391 10382 10374 10365 10357 10349 10341 10331 10323 10318 10310 10308 10303 10302 10298 10291